FALCON 9 DEB (48700 NORAD) Tracking and Keplerian Element Data

This shows tracking and keplerian element data for the satellite.

Feedback or suggestion? Click here.




ElementValue
Catalog48700
NameFALCON 9 DEB
Epoch Orbit507
Epoch Day178.213039
Epoch Year2021
RAAN261.1821
Inclination53.0344
Eccentricity0.0009682
Argument of Perigee306.2275
Mean Anonmoly53.7878
Mean Motion16.45272811
Decay Rate0.07446499
L11 48700U 21044BQ 21178.21303900 .07446499 12597-4 18512-3 0 9998
L22 48700 53.0344 261.1821 0009682 306.2275 53.7878 16.45272811 5078

Live tracking and technical data element details for FALCON 9 DEB (NORAD 48700). FALCON 9 DEB can be tracked NOW for your location showing map with azimuth and elevation plus other details from your city location.

Track the satellite on the map from your city or location and see movement details for azimuth, elevation, latitude, longitude, range, height, and movement on the map or in text.







IsCatalogInMostPopularTable: catalog: 48700, numindb: 12
Update: records affected: 1



GetName: 48700 FALCON 9 DEB

Hit Count: updated at: Wed, 04 Aug 2021 00:31:48 GMT